This demonstration page uses our WeatherBlox Daily Observations layout. Learn more.

Left ArrowRight Arrow

Hourly Observations for August 19, 2022

Temp ( °F °C ) Dew Point ( °F °C ) Humidity (%) Winds ( mph kmh ) Pressure ( in mb ) Visibility ( mi km ) Precip ( " mm )
12:53 am 00:53 Clear 90 32.2 53 11.7 29 29 N 7 11 29.80 1009 10 16 0.00 0.00
1:53 am 01:53 Clear 88 31.1 54 12.2 31 31 N 6 9 29.79 1009 10 16 0.00 0.00
2:53 am 02:53 Clear 83 28.3 55 12.8 38 38 NW 6 9 29.79 1009 10 16 0.00 0.00
3:53 am 03:53 Clear 83 28.3 55 12.8 38 38 NNW 6 9 29.79 1009 10 16 0.00 0.00
4:53 am 04:53 Clear 79 26.1 55 12.8 44 44 Calm 29.78 1009 10 16 0.00 0.00
5:53 am 05:53 Clear 80 26.7 56 13.3 44 44 N 3 6 29.79 1009 10 16 0.00 0.00
6:53 am 06:53 Sunny 78 25.6 55 12.8 45 45 N 3 6 29.80 1009 10 16 0.00 0.00
7:53 am 07:53 Sunny 82 27.8 55 12.8 40 40 Calm 29.80 1009 10 16 0.00 0.00
8:53 am 08:53 Sunny 89 31.7 53 11.7 29 29 Calm 29.80 1009 10 16 0.00 0.00
9:53 am 09:53 Sunny 93 33.9 52 11.1 25 25 NNE 6 9 29.78 1009 10 16 0.00 0.00
10:53 am 10:53 Sunny 96 35.6 52 11.1 23 23 VRB 5 7 29.77 1008 10 16 0.00 0.00
11:53 am 11:53 Sunny 100 37.8 51 10.6 20 20 NE 6 9 29.75 1007 10 16 0.00 0.00
12:53 pm 12:53 Sunny 103 39.4 51 10.6 18 18 Calm 29.72 1006 10 16 0.00 0.00
1:53 pm 13:53 Sunny 105 40.6 50 10 16 16 SSE 6 9 29.70 1006 10 16 0.00 0.00
2:53 pm 14:53 Sunny 106 41.1 41 5 11 11 W 7 11 29.68 1005 10 16 0.00 0.00
3:53 pm 15:53 Sunny 107 41.7 43 6.1 12 12 Calm 29.66 1004 10 16 0.00 0.00
4:53 pm 16:53 Sunny 108 42.2 43 6.1 11 11 VRB 3 6 29.64 1004 10 16 0.00 0.00
5:53 pm 17:53 Sunny 106 41.1 45 7.2 13 13 SSE 10 17 29.63 1004 10 16 0.00 0.00
6:53 pm 18:53 Sunny 105 40.6 44 6.7 13 13 S 12 19 29.63 1003 10 16 0.00 0.00
7:53 pm 19:53 Sunny 100 37.8 48 8.9 17 17 S 9 15 29.64 1004 10 16 0.00 0.00
8:53 pm 20:53 Clear 96 35.6 51 10.6 22 22 WSW 5 7 29.67 1005 10 16 0.00 0.00
9:53 pm 21:53 Clear 90 32.2 55 12.8 31 31 SSE 3 6 29.67 1005 10 16 0.00 0.00
10:53 pm 22:53 Clear 91 32.8 41 5 18 18 WSW 7 11 29.69 1005 10 16 0.00 0.00
11:53 pm 23:53 Clear 87 30.6 40 4.4 19 19 WSW 6 9 29.69 1006 10 16 0.00 0.00

Powered by AerisWeather